[[{"header":{"parameterUnit":"m.s-1","parameterCategory":1,"la1":30.2991,"la2":30.254,"lo1":-89.0895,"lo2":-89.0444,"dy":0.0017,"dx":0.0017,"nx":28,"ny":28,"refTime":"2024-04-30T09:00:00:Z","depth":0,"parameterNumber":2,"parameterNumberName":"U-component_of_WINDS"},"data":[0,0,0,0,0,0,0,0,0,0,0,0,0,0,0,0,0,0,0,0,0,0,0,0,0,0,0,0,0,0,0,0,0,0,0,0,0,0,0,0,0,0,0,0,0,0,0,0,0,0,0,0,0,0,0,0,0,0,-1.4038,-1.4041,0,-1.4358,-1.4362,-1.4365,-1.4546,-1.4546,-1.4547,-1.4548,-1.4882,-1.489,-1.4898,0,0,0,0,0,0,0,0,0,0,0,0,0,-1.3591,-1.3599,-1.4037,-1.4041,-1.4045,-1.4357,-1.4362,-1.4366,-1.4546,-1.4546,-1.4547,-1.4548,-1.4879,-1.4889,-1.4899,0,0,0,0,0,0,0,0,0,0,0,0,0,-1.3836,-1.3601,-1.4037,-1.4172,-1.4188,-1.4356,-1.4362,-1.4367,-1.4546,-1.4547,-1.4547,-1.4548,-1.4876,-1.4888,-1.49,-1.496,0,0,-1.4939,-1.4944,0,0,0,0,0,0,0,0,-1.3822,-1.3852,-1.4149,-1.4163,-1.4181,-1.4413,-1.4327,-1.4566,-1.4545,-1.441,-1.4548,-1.4549,-1.4725,-1.475,-1.4809,-1.4976,-1.499,-1.494,-1.4947,-1.4953,-1.4956,0,0,0,0,0,0,0,-1.3804,-1.3839,-1.4165,-1.4153,-1.4173,-1.4221,-1.4256,-1.4373,-1.4559,-1.4422,-1.4436,-1.4471,-1.4735,-1.4796,-1.4818,-1.4995,-1.4939,-1.495,-1.4958,-1.4963,-1.5235,-1.5235,0,0,0,0,0,0,-1.3765,-1.3824,-1.4154,-1.4174,-1.3999,-1.4228,-1.4268,-1.4338,-1.4558,-1.4593,-1.447,-1.4478,-1.4774,-1.4803,-1.483,-1.4919,-1.4953,-1.4964,-1.4972,-1.5236,-1.5235,-1.5235,0,0,0,0,0,0,-1.3754,-1.3792,-1.4141,-1.4003,-1.4051,-1.4235,-1.4312,-1.4343,-1.4405,-1.4594,-1.4629,-1.4498,-1.4776,-1.4813,-1.4928,-1.4933,-1.497,-1.4981,-1.5236,-1.5235,-1.5235,-1.5093,0,0,0,0,0,0,-1.3741,-1.3787,-1.3809,-1.4002,-1.4058,-1.4229,-1.4312,-1.4349,-1.4426,-1.4439,-1.463,-1.4663,-1.478,-1.4908,-1.494,-1.4951,-1.4991,-1.5236,-1.5236,-1.5235,-1.5098,-1.5088,-1.5079,0,0,0,0,0,-1.3724,-1.3756,-1.3809,-1.3848,-1.4088,-1.4229,-1.4261,-1.4393,-1.4425,-1.4451,-1.4574,-1.4657,-1.4927,-1.4918,-1.4956,-1.497,-1.5237,-1.5236,-1.5235,-1.5102,-1.509,-1.5079,0,0,0,0,0,0,-1.356,-1.3784,-1.3845,-1.394,-1.4064,-1.4259,-1.4295,-1.4375,-1.4494,-1.4502,-1.4664,-1.4706,-1.4806,-1.4901,-1.4886,-1.5044,-1.5091,-1.5098,-1.4977,-1.4967,-1.4957,-1.4932,-1.5002,0,0,0,0,0,-1.3535,-1.3628,-1.382,-1.3885,-1.3945,-1.4109,-1.4175,-1.4267,-1.4402,-1.4456,-1.4587,-1.4718,-1.4834,-1.4906,-1.5022,-1.5114,-1.516,-1.5143,-1.5133,-1.5124,-1.5128,-1.5189,-1.5184,-1.5233,-1.5233,-1.5233,0,0,-1.3484,-1.3618,-1.3666,-1.3856,-1.3963,-1.4059,-1.4151,-1.4248,-1.4323,-1.4472,-1.4588,-1.4689,-1.4847,-1.4951,-1.5004,-1.5033,-1.5126,-1.5123,-1.5115,-1.5124,-1.5188,-1.5183,-1.5178,-1.5232,-1.5232,-1.5232,0,0,-1.3439,-1.3549,-1.3617,-1.3723,-1.3884,-1.3994,-1.401,-1.4195,-1.4268,-1.4387,-1.4503,-1.4596,-1.479,-1.4899,-1.4979,-1.4983,-1.5066,-1.5017,-1.4966,-1.5024,-1.502,-1.5017,-1.5022,-1.5021,-1.5021,-1.502,-1.502,0,-1.3356,-1.3502,-1.3643,-1.3734,-1.3816,-1.3956,-1.4029,-1.4126,-1.4317,-1.4372,-1.4402,-1.4652,-1.4768,-1.4902,-1.4903,-1.4963,-1.499,-1.4995,-1.5008,-1.5007,-1.5007,-1.5013,-1.5014,-1.5013,-1.5014,-1.5015,-1.5015,0,-1.3393,-1.3494,-1.353,-1.3711,-1.3798,-1.3879,-1.4035,-1.4107,-1.4193,-1.4301,-1.4425,-1.4569,-1.4719,-1.4759,-1.4843,-1.4907,-1.492,-1.4977,-1.5028,-1.4993,-1.5002,-1.5005,-1.5003,-1.5006,-1.5008,-1.501,0,0,-1.325,-1.351,-1.3521,-1.3607,-1.3798,-1.388,-1.3971,-1.4117,-1.4177,-1.4306,-1.4389,-1.4553,-1.4608,-1.47,-1.4799,-1.4849,-1.4848,-1.4902,-1.4908,-1.4888,-1.4932,-1.4887,-1.4887,-1.4905,-1.4906,-1.4906,-1.4919,0,-1.3234,-1.3399,-1.3531,-1.365,-1.3747,-1.3885,-1.3965,-1.4093,-1.4198,-1.43,-1.4418,-1.4532,-1.4595,-1.4652,-1.4708,-1.4835,-1.4859,-1.4837,-1.4987,-1.499,-1.4941,-1.4891,-1.4844,-1.4848,-1.4923,-1.4924,-1.4924,0,-1.3235,-1.3359,-1.3486,-1.3671,-1.3717,-1.3786,-1.3933,-1.4027,-1.4178,-1.4252,-1.4357,-1.4461,-1.4568,-1.4611,-1.4764,-1.4746,-1.4816,-1.4889,-1.4893,-1.4911,-1.4954,-1.4909,-1.4852,-1.4853,-1.493,-1.493,-1.4929,0,-1.3119,-1.3318,-1.3421,-1.349,-1.3709,-1.3755,-1.3849,-1.4,-1.4081,-1.4212,-1.4267,-1.4409,-1.4486,-1.4596,-1.4738,-1.4755,-1.4878,-1.4931,-1.4945,-1.4942,-1.4963,-1.496,-1.4917,-1.5008,-1.5008,-1.5008,-1.5008,0,-1.3087,-1.3159,-1.3373,-1.3435,-1.3524,-1.3678,-1.3762,-1.3868,-1.4003,-1.4093,-1.4223,-1.4305,-1.4487,-1.4594,-1.4706,-1.4818,-1.4852,-1.4918,-1.4947,-1.4906,-1.4897,-1.4953,-1.4957,-1.5008,-1.5008,-1.5008,-1.5008,0,-1.297,-1.3116,-1.3237,-1.3436,-1.3488,-1.3544,-1.3716,-1.3785,-1.39,-1.4013,-1.4048,-1.4229,-1.4361,-1.4515,-1.4697,-1.4773,-1.4877,-1.492,-1.4825,-1.4842,-1.4848,-1.4845,-1.4839,-1.4848,-1.493,-1.4929,-1.4928,0,-1.2939,-1.2999,-1.3204,-1.3273,-1.3363,-1.3471,-1.3556,-1.3713,-1.3796,-1.3976,-1.4024,-1.4166,-1.4288,-1.4494,-1.4644,-1.4787,-1.4834,-1.4823,-1.4856,-1.4815,-1.4836,-1.4831,-1.484,-1.4812,-1.481,-1.4809,-1.4808,0,-1.2869,-1.294,-1.3054,-1.3196,-1.3292,-1.3412,-1.3537,-1.3587,-1.377,-1.3858,-1.3994,-1.4089,-1.4277,-1.4418,-1.458,-1.4682,-1.4777,-1.4797,-1.4808,-1.4766,-1.471,-1.4743,-1.48,-1.4795,-1.4797,-1.4798,-1.4798,-1.4799,-1.2796,-1.2857,-1.3012,-1.3137,-1.3249,-1.3364,-1.344,-1.3565,-1.3681,-1.3844,-1.3932,-1.4067,-1.4225,-1.4452,-1.4552,-1.4664,-1.4696,-1.4711,-1.4715,-1.4716,-1.4706,-1.4692,-1.4694,-1.4695,-1.4695,-1.4696,-1.4696,0,-1.2734,-1.2842,-1.2955,-1.3127,-1.3227,-1.3307,-1.3452,-1.3531,-1.3648,-1.3785,-1.3903,-1.4063,-1.4203,-1.4366,-1.4517,-1.4576,-1.4624,-1.461,-1.4607,-1.463,-1.4668,-1.4643,-1.4569,-1.4569,-1.4569,-1.4569,-1.4569,-1.4569,-1.2713,-1.2821,-1.2911,-1.3079,-1.3188,-1.332,-1.3396,-1.3506,-1.3617,-1.3788,-1.3904,-1.401,-1.416,-1.4324,-1.4458,-1.4503,-1.4554,-1.4527,-1.4585,-1.4616,-1.4627,-1.4637,-1.4615,-1.4537,-1.4537,-1.4539,-1.4539,-1.4539]},{"header":{"parameterUnit":"m.s-1","parameterCategory":1,"la1":30.2991,"la2":30.254,"lo1":-89.0895,"lo2":-89.0444,"dy":0.0017,"dx":0.0017,"nx":28,"ny":28,"refTime":"2024-04-30T09:00:00:Z","depth":0,"parameterNumber":3,"parameterNumberName":"V-component_of_WINDS"},"data":[0,0,0,0,0,0,0,0,0,0,0,0,0,0,0,0,0,0,0,0,0,0,0,0,0,0,0,0,0,0,0,0,0,0,0,0,0,0,0,0,0,0,0,0,0,0,0,0,0,0,0,0,0,0,0,0,0,0,5.1824,5.1828,0,5.218,5.2184,5.2188,5.2269,5.2267,5.2264,5.2262,5.2617,5.2628,5.2639,0,0,0,0,0,0,0,0,0,0,0,0,0,5.1209,5.122,5.1824,5.1828,5.1833,5.2179,5.2184,5.2189,5.227,5.2267,5.2264,5.2261,5.2613,5.2627,5.2641,0,0,0,0,0,0,0,0,0,0,0,0,0,5.1511,5.1224,5.1823,5.1915,5.1927,5.2178,5.2184,5.219,5.227,5.2267,5.2263,5.2259,5.2608,5.2625,5.2642,5.2824,0,0,5.2696,5.2704,0,0,0,0,0,0,0,0,5.1494,5.1534,5.1897,5.1909,5.1923,5.2177,5.2097,5.2402,5.2271,5.214,5.2262,5.2258,5.2472,5.2501,5.2575,5.2841,5.2856,5.2698,5.2708,5.2716,5.2721,0,0,0,0,0,0,0,5.1473,5.1519,5.1964,5.1902,5.1918,5.1937,5.1976,5.2155,5.2322,5.2151,5.2158,5.2199,5.2479,5.2558,5.2584,5.2861,5.2697,5.2713,5.2724,5.2731,5.3297,5.3301,0,0,0,0,0,0,5.1437,5.1501,5.1953,5.1975,5.1696,5.1951,5.1994,5.2099,5.232,5.2351,5.2202,5.2202,5.253,5.2564,5.2597,5.2827,5.2716,5.2732,5.2742,5.3292,5.3298,5.3303,0,0,0,0,0,0,5.1424,5.1477,5.1939,5.174,5.1801,5.1965,5.2082,5.2108,5.2187,5.2359,5.2388,5.2253,5.2528,5.2572,5.2769,5.284,5.274,5.2756,5.3287,5.3294,5.33,5.3285,0,0,0,0,0,0,5.1406,5.1471,5.1543,5.1741,5.1811,5.2106,5.2086,5.2117,5.2219,5.2222,5.2415,5.2443,5.2529,5.2742,5.2786,5.2862,5.277,5.3281,5.329,5.3298,5.328,5.3291,5.33,0,0,0,0,0,5.1383,5.1522,5.1546,5.16,5.1905,5.211,5.2149,5.2248,5.2224,5.2297,5.2408,5.2437,5.2825,5.2761,5.2812,5.2894,5.3277,5.3288,5.3297,5.3276,5.3289,5.33,0,0,0,0,0,0,5.1323,5.1549,5.1579,5.1786,5.1929,5.2123,5.2218,5.2258,5.2408,5.2404,5.2518,5.2561,5.275,5.2842,5.2767,5.3083,5.305,5.3071,5.3017,5.303,5.304,5.3013,5.2784,0,0,0,0,0,5.1335,5.1486,5.1674,5.1838,5.1909,5.2051,5.2144,5.2209,5.236,5.2419,5.2544,5.2687,5.2842,5.2941,5.3093,5.3294,5.3338,5.3376,5.3386,5.3393,5.3409,5.3525,5.3545,5.3336,5.3336,5.3336,0,0,5.1359,5.1501,5.1588,5.183,5.1948,5.21,5.2101,5.2261,5.2374,5.2443,5.2637,5.2734,5.2901,5.3102,5.3196,5.3184,5.3477,5.3406,5.3411,5.3423,5.3538,5.3557,5.3575,5.3343,5.3342,5.334,0,0,5.1481,5.1603,5.1756,5.1875,5.2056,5.2151,5.2187,5.2378,5.2446,5.2644,5.2699,5.2834,5.3098,5.3216,5.331,5.3482,5.3515,5.3528,5.3579,5.369,5.3707,5.3722,5.3784,5.3805,5.3543,5.3543,5.3544,0,5.1486,5.172,5.1827,5.1987,5.2092,5.2166,5.2321,5.243,5.2649,5.2719,5.2704,5.3039,5.3156,5.3387,5.343,5.3503,5.3548,5.3506,5.3696,5.3712,5.3728,5.3789,5.3812,5.3544,5.3544,5.3544,5.3544,0,5.172,5.1881,5.1982,5.2197,5.2314,5.2469,5.2599,5.2704,5.2759,5.2855,5.3056,5.3201,5.3384,5.3444,5.3497,5.3683,5.367,5.3674,5.3643,5.3747,5.3806,5.383,5.3545,5.3545,5.3544,5.3544,0,0,5.181,5.2087,5.2122,5.2222,5.2429,5.2555,5.2714,5.2898,5.2986,5.3135,5.3272,5.3496,5.3502,5.3609,5.3677,5.3775,5.3904,5.3767,5.3773,5.3788,5.412,5.4116,5.4141,5.3928,5.3932,5.3936,5.4106,0,5.1958,5.2249,5.2352,5.2591,5.2742,5.2817,5.2956,5.3097,5.3192,5.3332,5.3435,5.3593,5.3589,5.3654,5.3755,5.3867,5.3972,5.3856,5.4055,5.406,5.4011,5.4172,5.4168,5.432,5.4129,5.4133,5.4136,0,5.2168,5.2326,5.2581,5.2773,5.2841,5.2964,5.3143,5.3277,5.3438,5.35,5.3623,5.3685,5.3854,5.3814,5.4048,5.3967,5.4055,5.4122,5.4131,5.4153,5.4104,5.4198,5.4371,5.4394,5.4174,5.4171,5.4168,0,5.221,5.2486,5.2676,5.2759,5.2987,5.3072,5.3171,5.333,5.3435,5.359,5.3659,5.383,5.3924,5.4055,5.4161,5.4122,5.4387,5.4354,5.4442,5.444,5.4494,5.4489,5.4683,5.4549,5.4549,5.4548,5.4548,0,5.2364,5.2517,5.2698,5.2814,5.2989,5.3106,5.3275,5.3378,5.3519,5.3656,5.3729,5.3855,5.3989,5.4132,5.4216,5.4399,5.444,5.4494,5.4514,5.4488,5.4481,5.4546,5.4539,5.4555,5.4553,5.4552,5.4551,0,5.244,5.2567,5.2779,5.298,5.3034,5.3154,5.3325,5.344,5.354,5.3712,5.3759,5.3914,5.4087,5.4208,5.4428,5.4485,5.4682,5.4701,5.4629,5.4639,5.472,5.4711,5.4964,5.5004,5.4842,5.4843,5.4844,0,5.2529,5.265,5.2866,5.2965,5.3065,5.3223,5.3332,5.3452,5.3563,5.3759,5.3851,5.403,5.418,5.4453,5.4584,5.4754,5.4778,5.4855,5.4803,5.4774,5.478,5.4772,5.4785,5.4862,5.4863,5.4864,5.4865,0,5.2676,5.2734,5.2891,5.3071,5.3201,5.3347,5.3494,5.357,5.3716,5.3836,5.4017,5.4133,5.4362,5.4539,5.4723,5.4822,5.4868,5.488,5.491,5.4884,5.4838,5.4865,5.4651,5.4874,5.4873,5.4872,5.4871,5.4871,5.2763,5.2875,5.3046,5.3218,5.3343,5.348,5.3599,5.3716,5.387,5.4068,5.413,5.4317,5.4479,5.4731,5.4833,5.4981,5.4975,5.5017,5.5028,5.5037,5.5037,5.4815,5.5014,5.5014,5.5014,5.5014,5.5014,0,5.2914,5.3029,5.3187,5.3393,5.3529,5.3566,5.3731,5.3842,5.4007,5.4156,5.4304,5.4512,5.4685,5.4832,5.5011,5.5101,5.5127,5.5144,5.5138,5.5161,5.5031,5.4989,5.512,5.512,5.512,5.512,5.512,5.512,5.3009,5.3202,5.3281,5.3536,5.365,5.3838,5.3929,5.4056,5.4176,5.4407,5.4553,5.4649,5.4797,5.4989,5.5149,5.5188,5.525,5.5263,5.5306,5.5182,5.517,5.5158,5.5118,5.5275,5.5276,5.5424,5.5425,5.5426]}]]